Location: Fairmont
(43.6520°N, 94.4610°W)
Time: 14:20:36
(UTC-06:00)

Daily predictions for brighter satellites

Satellite Brightness Start Highest point End
(mag) Time Altitude Azimuth Time Altitude Azimuth Time Altitude Azimuth
CZ-4C R/B 4.5 17:42:12 10° NNW 17:45:04 13° N 17:48:04 10° NNE
Cosmos 2151 3.4 17:41:50 10° SSE 17:45:46 41° E 17:49:45 10° NNE
Cosmos 2278 Rocket 2.2 17:40:41 10° NNW 17:46:23 74° ENE 17:52:04 10° SSE
USA 215 3.8 17:40:26 10° E 17:46:29 42° NNE 17:52:33 10° NW
CZ-4 R/B 1.6 17:43:50 10° S 17:47:42 72° W 17:51:38 10° NNW
Cosmos 1726 2.2 17:44:25 10° N 17:48:08 55° E 17:51:51 10° SSE
SJ-12 4.3 17:44:33 10° S 17:48:40 72° WSW 17:52:49 10° NNW
Cosmos 1674 3.7 17:45:06 10° SSW 17:48:49 50° WNW 17:52:36 10° N
Cosmos 1455 3.9 17:47:52 10° NE 17:49:50 13° ENE 17:51:47 10° E
Resurs 01 Rocket 3.5 17:52:17 10° ENE 17:52:46 10° ENE 17:53:15 10° NE
Lacrosse 5 3.7 17:50:48 10° NW 17:54:27 19° N 17:58:05 10° NE
SJ-6B 4.4 17:52:39 10° ESE 17:55:21 17° ENE 17:58:05 10° NNE
Cosmos 2228 Rocket 4.2 17:54:58 10° NNW 17:59:15 49° W 18:03:32 10° SSW
Cosmos 2279 Rocket 4.1 17:57:25 10° N 18:03:33 57° ENE 18:09:39 10° SSE
CZ-2C R/B 3.5 18:04:36 10° S 18:09:24 49° W 18:14:05 10° NNW
Cosmos 1300 2.8 18:06:03 10° N 18:09:54 81° W 18:13:43 10° S
Cosmos 1151 Rocket 3.2 18:05:56 10° N 18:10:13 79° W 18:14:31 10° S
Meteor 1-27 4.3 18:04:54 10° N 18:10:44 70° ENE 18:16:33 10° SSE
Cosmos 2237 Rocket 2.2 18:05:52 10° SSW 18:11:30 89° WNW 18:17:12 10° NNE
Cosmos 2369 Rocket 3.9 18:11:20 10° NNE 18:13:54 13° NE 18:15:08 12° NE
Lacrosse 4 Rocket 2.6 18:13:30 10° N 18:16:40 21° NE 18:18:28 16° E
CENTAUR R/B 3.8 18:13:07 10° WSW 18:18:54 37° NW 18:25:25 10° NNE
SL-16 R/B 2.5 18:13:53 10° S 18:19:15 47° ESE 18:24:40 10° NE
COSMOS 2428 4.4 18:14:38 10° WSW 18:19:37 30° NW 18:24:37 10° N
Cosmos 1125 Rocket 4.4 18:14:37 10° NNW 18:19:41 53° WSW 18:24:42 10° S
SL-14 R/B 3.4 18:16:00 10° SSW 18:19:55 77° W 18:23:56 10° N
Cosmos 44 3.8 18:14:49 10° SW 18:20:02 65° NW 18:25:01 10° NNE
Cosmos 1340 Rocket 2.7 18:17:31 10° S 18:21:24 63° E 18:25:18 10° NNE
Cosmos 1484 Rocket 2.9 18:18:26 10° S 18:22:23 80° W 18:26:24 10° NNW
Nadezhda 4 Rocket 4.4 18:18:54 10° SSE 18:24:40 41° E 18:30:31 10° NNE
USA 229 DEB 4.5 18:19:40 10° S 18:25:29 31° ESE 18:29:44 17° ENE
USA 229 4.5 18:19:47 10° S 18:25:35 30° ESE 18:29:47 17° ENE
ALOS 3.3 18:22:04 10° ESE 18:25:44 23° ENE 18:29:24 10° NNE
SKYMED 2 3.5 18:21:31 10° NNE 18:25:53 75° E 18:30:12 10° S
Cosmos 1805 Rocket 3.7 18:21:37 10° S 18:25:57 53° E 18:30:19 10° NNE
Cosmos 1184 Rocket 3.9 18:24:25 10° SSE 18:27:11 24° E 18:27:44 23° ENE
Spot 2 Rocket 4.5 18:23:52 10° ESE 18:27:53 24° ENE 18:31:54 10° N
Cosmos 2297 3.6 18:24:33 10° NNW 18:30:18 79° ENE 18:36:01 10° SSE
Cosmos 2180 Rocket 4.4 18:24:20 10° N 18:30:32 76° E 18:36:45 10° SSE
Meteor 2-10 4.1 18:26:51 10° NNW 18:31:59 79° W 18:37:13 10° S
Thor Agena Rocket 4.3 18:27:25 10° N 18:32:32 54° WNW 18:37:32 10° SW
Meteor 1-28 Rocket 3.1 18:30:52 10° NNE 18:34:34 65° E 18:38:15 10° S
Cosmos 2058 3.1 18:30:56 10° SSW 18:35:01 71° W 18:39:07 10° N
Cosmos 1869 4.2 18:31:55 10° NNE 18:35:26 28° ENE 18:38:56 10° SE
Iridium 4 Rocket 3.9 18:33:14 10° SE 18:36:58 27° E 18:38:17 23° NE
Cosmos 1461 2.7 18:34:23 10° SSW 18:38:34 73° ESE 18:41:08 22° NE
Sich 1 3.2 18:36:49 10° SSE 18:41:06 50° E 18:45:23 10° NNE
Cosmos 1538 Rocket 4.1 18:36:51 10° S 18:42:02 60° ESE 18:46:59 12° NNE
Cosmos 1092 Rocket 4.3 18:40:08 10° SSE 18:46:02 43° E 18:51:58 10° NNE
Cosmos 1633 Rocket 3.1 18:45:45 10° S 18:50:02 54° E 18:53:52 13° NNE
Abrixas 2.8 18:47:33 10° W 18:50:26 53° NNW 18:50:53 46° NNE
FENGYUN 3A 4.0 18:45:54 10° SE 18:50:54 42° ENE 18:55:56 10° N
METEOR-M 4.0 18:48:10 10° SSE 18:53:31 81° ENE 18:58:54 10° NNW
BREEZE-M DEB (TANK) 1.6 18:51:52 10° W 18:54:13 49° NNW 18:54:14 49° NNW
FAST Rocket 3.8 18:52:48 10° S 18:55:23 89° NNW 18:56:11 42° N
Cosmos 1356 Rocket 3.2 18:51:51 10° S 18:55:50 84° E 18:59:17 14° NNE
Cosmos 1680 Rocket 4.4 18:52:28 10° SSE 18:56:19 27° ESE 18:56:19 27° ESE
SL-19 R/B 4.3 18:53:09 10° SSE 18:58:51 60° ENE 19:04:21 10° N
FREGAT/IRIS 2.4 18:57:06 10° SSE 19:00:09 83° ENE 19:03:13 10° N
Aureole 1 Rocket 4.0 18:55:16 10° S 19:00:35 58° ESE 19:07:35 10° NNE
Lacrosse 5 rocket 3.7 18:58:20 10° WNW 19:01:23 22° SW 19:04:31 10° S
Aureole 2 Rocket 4.5 18:58:58 10° SW 19:02:25 32° WNW 19:06:09 10° N
ATLAS 5 CENTAUR R/B 3.8 19:01:19 10° NNW 19:05:20 19° NNE 19:05:21 19° NNE
NOAA 12 4.3 19:00:31 10° S 19:05:45 74° WSW 19:11:03 10° NNW
Cosmos 1626 2.6 19:06:00 10° SSW 19:09:41 59° W 19:12:55 13° N
Cosmos 1707 Rocket 4.4 19:09:22 10° NNW 19:13:34 51° W 19:17:46 10° S
COSMO-SKYMED 1 4.2 19:09:52 10° N 19:13:48 34° WNW 19:17:42 10° SW
Cosmos 2219 Rocket 4.5 19:15:23 10° W 19:19:22 19° NW 19:23:23 10° N
Cosmos 773 Rocket 3.8 19:14:41 10° SSW 19:19:51 86° ESE 19:22:21 32° NNE
FengYun 1-2 T 4.1 19:15:10 10° SSE 19:20:43 79° ENE 19:26:15 10° NNW
Cosmos 2333 Rocket 4.3 19:17:55 10° W 19:22:18 23° NW 19:26:45 10° N
Cosmos 1943 Rocket 4.0 19:19:27 10° N 19:21:01 15° NNE 19:21:01 15° NNE
Cosmos 1603 3.6 19:18:25 10° S 19:23:53 58° ESE 19:24:34 54° E
Cosmos 1666 Rocket 4.4 19:21:07 10° SSW 19:25:20 50° WNW 19:29:37 10° N
Cosmos 1455 3.3 19:22:10 10° NNW 19:25:47 43° W 19:29:25 10° SSW
Resurs 01 Rocket 1.5 19:26:51 39° SSE 19:28:30 86° ENE 19:32:58 10° NNW
USA 215 3.3 19:24:57 24° SE 19:29:12 79° SW 19:35:47 10° NW
SJ-6B 4.0 19:25:46 10° S 19:29:40 44° W 19:33:40 10° NNW
ATLAS 3B R/B 4.3 19:26:37 10° NNW 19:31:02 17° NNE 19:31:30 17° NNE
CZ-4C R/B 4.0 19:30:55 10° NNW 19:35:48 24° NNE 19:35:48 24° NNE
Lacrosse 5 3.6 19:35:16 10° NW 19:38:19 20° N 19:38:19 20° N
Cosmos 1655 Rocket 4.4 19:32:55 10° SSE 19:37:30 44° SE 19:37:30 44° SE
Cosmos 1627 Rocket 4.3 19:38:17 10° S 19:44:27 78° E 19:46:59 38° NNE
Lacrosse 4 Rocket 2.7 19:51:43 10° NW 19:54:54 37° W 19:54:54 37° W
Cosmos 2369 Rocket 3.1 19:53:28 10° NNW 19:56:59 38° N 19:56:59 38° N
ALOS 3.5 19:58:34 10° SSW 20:02:56 40° W 20:07:20 10° NNW
SL-16 R/B 3.9 19:58:42 10° WSW 20:03:34 29° NW 20:06:55 17° N
Spot 2 Rocket 4.5 20:01:47 10° S 20:06:35 44° W 20:11:25 10° NNW
Cosmos 2026 Rocket 4.1 20:07:22 10° SSW 20:13:35 72° W 20:13:47 71° WNW
USA 229 DEB 4.0 20:09:15 10° SW 20:16:01 60° NW 20:17:14 53° N
USA 229 4.0 20:09:20 10° SW 20:16:08 61° NW 20:17:17 54° N
ATLAS 5 CENTAUR R/B 4.3 20:45:12 10° NNW 20:46:55 20° NNW 20:46:55 20° NNW
